Hagerstown, MD

11:27 PM EDT on October 20, 2019 (GMT -0400)
Hagerstown Regional-Henson

Weather History for KHGR - August, 2019

Change the Weather History Date:

Saturday, August 17, 2019

  Actual Average Record
Temperature  
Mean Temperature 80 °F 73 °F  
Max Temperature 91 °F 83 °F 95 °F (1999)
Min Temperature 69 °F 64 °F 56 °F (2013)
Degree Days  
Heating Degree Days 0 0  
Month to date heating degree days 0 0  
Since 1 June heating degree days 5 18  
Since 1 July heating degree days 0 0  
Cooling Degree Days 15 9  
Month to date cooling degree days 209 158  
Year to date cooling degree days 1076 764  
Since 1 June cooling degree days 894 688  
Growing Degree Days 30 (Base 50)    
Moisture  
Dew Point 68 °F    
Average Humidity 67    
Maximum Humidity 90    
Minimum Humidity 44    
Precipitation  
Precipitation 0.00 in 0.09 in 0.64 in (2003)
Month to date precipitation 1.01 1.69  
Year to date precipitation 26.98 25.18  
Sea Level Pressure  
Sea Level Pressure 30.01 in    
Wind  
Wind Speed 4 mph (South)    
Max Wind Speed 13 mph    
Max Gust Speed 21 mph    
Visibility 8 miles    
Events      
T = Trace of Precipitation, MM = Missing Value Source: NWS Daily Summary

Daily Weather History Graph

Daily Weather History Graph

Search for Another Location

Airport or City:

Astronomy

Aug. 17, 2019 Rise Set
Actual Time 6:24 AM EDT 8:04 PM EDT
Civil Twilight 5:55 AM EDT 8:33 PM EDT
Nautical Twilight 5:21 AM EDT 9:07 PM EDT
Astronomical Twilight 4:44 AM EDT 9:44 PM EDT
Moon 9:31 PM EDT (8/17) 8:11 AM EDT (8/17)
Length of Visible Light 14h 37m
Length of Day
13h 39m
Waning Gibbous, 96% of the Moon is Illuminated
Aug 17
Waning Gibbous
Aug 23
Last Quarter
Aug 30
New
Sep 5
First Quarter
Sep 14
Full

Hourly Weather History & Observations

Time (EDT) Temp. Heat Index Dew Point Humidity Pressure Visibility Wind Dir Wind Speed Gust Speed Precip Events Conditions
12:53 AM 75.0 °F - 69.1 °F 82% 30.01 in 10.0 mi Calm Calm - N/A   Clear
1:53 AM 73.9 °F - 69.1 °F 85% 30.01 in 8.0 mi SE 4.6 mph - N/A   Clear
2:53 AM 73.0 °F - 69.1 °F 87% 30.01 in 7.0 mi Calm Calm - N/A   Scattered Clouds
3:53 AM 71.1 °F - 68.0 °F 90% 30.01 in 5.0 mi NNW 3.5 mph - N/A   Partly Cloudy
4:53 AM 73.0 °F - 69.1 °F 87% 30.00 in 8.0 mi Calm Calm - N/A   Mostly Cloudy
5:53 AM 69.1 °F - 66.9 °F 93% 30.01 in 4.0 mi WNW 4.6 mph - N/A   Clear
6:53 AM 70.0 °F - 66.9 °F 90% 30.01 in 3.0 mi Calm Calm - N/A   Clear
7:53 AM 72.0 °F - 68.0 °F 87% 30.03 in 4.0 mi WNW 3.5 mph - N/A   Partly Cloudy
8:15 AM 73.9 °F - 70.0 °F 87% 30.01 in 5.0 mi Calm Calm - N/A   Mostly Cloudy
8:44 AM 75.9 °F - 70.0 °F 82% 30.01 in 5.0 mi Calm Calm - N/A   Haze
8:53 AM 75.9 °F - 70.0 °F 82% 30.01 in 6.0 mi Calm Calm - N/A   Haze
9:33 AM 78.1 °F - 71.1 °F 79% 30.01 in 8.0 mi South 3.5 mph - N/A   Overcast
9:53 AM 78.1 °F - 71.1 °F 79% 30.03 in 9.0 mi Variable 4.6 mph - N/A   Overcast
10:39 AM 79.0 °F - 71.1 °F 77% 30.04 in 9.0 mi Variable 3.5 mph - N/A   Overcast
10:53 AM 80.1 °F 83.6 °F 71.1 °F 74% 30.05 in 10.0 mi Calm Calm - N/A   Mostly Cloudy
11:11 AM 81.0 °F 84.9 °F 71.1 °F 72% 30.04 in 10.0 mi Variable 3.5 mph - N/A   Partly Cloudy
11:53 AM 84.9 °F 89.4 °F 70.0 °F 61% 30.04 in 10.0 mi Variable 5.8 mph - N/A   Partly Cloudy
12:53 PM 86.0 °F 88.8 °F 66.9 °F 53% 30.03 in 10.0 mi SW 9.2 mph - N/A   Mostly Cloudy
1:53 PM 87.1 °F 88.9 °F 64.9 °F 48% 30.01 in 10.0 mi South 6.9 mph - N/A   Clear
2:53 PM 89.1 °F 90.3 °F 64.0 °F 43% 30.00 in 10.0 mi Variable 3.5 mph - N/A   Partly Cloudy
3:53 PM 89.1 °F 91.3 °F 66.0 °F 46% 29.97 in 10.0 mi South 6.9 mph - N/A   Mostly Cloudy
4:53 PM 90.0 °F 91.7 °F 64.9 °F 43% 29.96 in 10.0 mi SSW 8.1 mph - N/A   Mostly Cloudy
5:53 PM 90.0 °F 91.7 °F 64.9 °F 43% 29.96 in 10.0 mi SSW 9.2 mph - N/A   Scattered Clouds
6:53 PM 89.1 °F 91.3 °F 66.0 °F 46% 29.97 in 10.0 mi South 9.2 mph - N/A   Clear
7:53 PM 86.0 °F 87.6 °F 64.9 °F 49% 29.98 in 10.0 mi SSE 3.5 mph - N/A   Clear
8:53 PM 84.0 °F 86.5 °F 66.9 °F 56% 29.99 in 10.0 mi ESE 3.5 mph - N/A   Clear
9:53 PM 81.0 °F 83.8 °F 68.0 °F 65% 30.00 in 10.0 mi Calm Calm - N/A   Clear
10:53 PM 80.1 °F 82.7 °F 68.0 °F 67% 29.99 in 10.0 mi SE 6.9 mph - N/A   Clear
11:53 PM 79.0 °F - 69.1 °F 72% 29.99 in 10.0 mi Calm Calm - N/A   Clear